Year,Month,Day,Hour,Minute,Value (Times are PST for temperature in C)
2010,02,16,00,00,10.10
2010,02,16,00,01,10.10
2010,02,16,00,02,10.10
2010,02,16,00,03,10.10
2010,02,16,00,04,10.10
2010,02,16,00,05,10.10
2010,02,16,00,06,10.10
2010,02,16,00,07,10.10
2010,02,16,00,08,10.10
2010,02,16,00,09,10.10
2010,02,16,00,10,10.10
2010,02,16,00,11,10.10
2010,02,16,00,12,10.10
2010,02,16,00,13,10.10
2010,02,16,00,14,10.10
2010,02,16,00,15,10.10
2010,02,16,00,16,10.10
2010,02,16,00,17,10.00
2010,02,16,00,18,9.90
2010,02,16,00,19,9.90
2010,02,16,00,20,9.90
2010,02,16,00,21,9.90
2010,02,16,00,22,9.90
2010,02,16,00,23,9.90
2010,02,16,00,24,9.90
2010,02,16,00,25,9.90
2010,02,16,00,26,9.90
2010,02,16,00,27,9.90
2010,02,16,00,28,9.90
2010,02,16,00,29,9.90
2010,02,16,00,30,9.90
2010,02,16,00,31,9.90
2010,02,16,00,32,9.90
2010,02,16,00,33,9.90
2010,02,16,00,34,9.90
2010,02,16,00,35,9.90
2010,02,16,00,36,9.90
2010,02,16,00,37,9.90
2010,02,16,00,38,9.90
2010,02,16,00,39,9.90
2010,02,16,00,40,9.90
2010,02,16,00,41,9.90
2010,02,16,00,42,9.90
2010,02,16,00,43,9.90
2010,02,16,00,44,9.90
2010,02,16,00,45,9.90
2010,02,16,00,46,9.90
2010,02,16,00,47,9.90
2010,02,16,00,48,9.90
2010,02,16,00,49,9.90
2010,02,16,00,50,9.90
2010,02,16,00,51,9.90
2010,02,16,00,52,9.90
2010,02,16,00,53,9.90
2010,02,16,00,54,9.90
2010,02,16,00,55,9.90
2010,02,16,00,56,9.90
2010,02,16,00,57,9.90
2010,02,16,00,58,9.90
2010,02,16,00,59,9.80
2010,02,16,01,00,9.80
2010,02,16,01,01,9.80
2010,02,16,01,02,9.80
2010,02,16,01,03,9.80
2010,02,16,01,04,9.70
2010,02,16,01,05,9.70
2010,02,16,01,06,9.70
2010,02,16,01,07,9.70
2010,02,16,01,08,9.70
2010,02,16,01,09,9.70
2010,02,16,01,10,9.70
2010,02,16,01,11,9.70
2010,02,16,01,12,9.70
2010,02,16,01,13,9.60
2010,02,16,01,14,9.60
2010,02,16,01,15,9.60
2010,02,16,01,16,9.60
2010,02,16,01,17,9.60
2010,02,16,01,18,9.60
2010,02,16,01,19,9.60
2010,02,16,01,20,9.50
2010,02,16,01,21,9.50
2010,02,16,01,22,9.50
2010,02,16,01,23,9.50
2010,02,16,01,24,9.50
2010,02,16,01,25,9.50
2010,02,16,01,26,9.50
2010,02,16,01,27,9.50
2010,02,16,01,28,9.50
2010,02,16,01,29,9.50
2010,02,16,01,30,9.50
2010,02,16,01,31,9.50
2010,02,16,01,32,9.50
2010,02,16,01,33,9.50
2010,02,16,01,34,9.50
2010,02,16,01,35,9.50
2010,02,16,01,36,9.50
2010,02,16,01,37,9.50
2010,02,16,01,38,9.50
2010,02,16,01,39,9.50
2010,02,16,01,40,9.50
2010,02,16,01,41,9.50
2010,02,16,01,42,9.50
2010,02,16,01,43,9.50
2010,02,16,01,44,9.50
2010,02,16,01,45,9.50
2010,02,16,01,46,9.50
2010,02,16,01,47,9.50
2010,02,16,01,48,9.50
2010,02,16,01,49,9.50
2010,02,16,01,50,9.50
2010,02,16,01,51,9.50
2010,02,16,01,52,9.50
2010,02,16,01,53,9.50
2010,02,16,01,54,9.50
2010,02,16,01,55,9.50
2010,02,16,01,56,9.50
2010,02,16,01,57,9.50
2010,02,16,01,58,9.50
2010,02,16,01,59,9.50
2010,02,16,02,00,9.50
2010,02,16,02,01,9.50
2010,02,16,02,02,9.50
2010,02,16,02,03,9.50
2010,02,16,02,04,9.50
2010,02,16,02,05,9.50
2010,02,16,02,06,9.50
2010,02,16,02,07,9.50
2010,02,16,02,08,9.50
2010,02,16,02,09,9.50
2010,02,16,02,10,9.50
2010,02,16,02,11,9.50
2010,02,16,02,12,9.50
2010,02,16,02,13,9.50
2010,02,16,02,14,9.50
2010,02,16,02,15,9.50
2010,02,16,02,16,9.50
2010,02,16,02,17,9.50
2010,02,16,02,18,9.50
2010,02,16,02,19,9.50
2010,02,16,02,20,9.50
2010,02,16,02,21,9.50
2010,02,16,02,22,9.50
2010,02,16,02,23,9.50
2010,02,16,02,24,9.50
2010,02,16,02,25,9.50
2010,02,16,02,26,9.50
2010,02,16,02,27,9.50
2010,02,16,02,28,9.50
2010,02,16,02,29,9.50
2010,02,16,02,30,9.50
2010,02,16,02,31,9.50
2010,02,16,02,32,9.50
2010,02,16,02,33,9.50
2010,02,16,02,34,9.50
2010,02,16,02,35,9.40
2010,02,16,02,36,9.40
2010,02,16,02,37,9.50
2010,02,16,02,38,9.40
2010,02,16,02,39,9.40
2010,02,16,02,40,9.40
2010,02,16,02,41,9.40
2010,02,16,02,42,9.40
2010,02,16,02,43,9.40
2010,02,16,02,44,9.40
2010,02,16,02,45,9.40
2010,02,16,02,46,9.40
2010,02,16,02,47,9.40
2010,02,16,02,48,9.40
2010,02,16,02,49,9.50
2010,02,16,02,50,9.40
2010,02,16,02,51,9.40
2010,02,16,02,52,9.40
2010,02,16,02,53,9.40
2010,02,16,02,54,9.40
2010,02,16,02,55,9.40
2010,02,16,02,56,9.40
2010,02,16,02,57,9.40
2010,02,16,02,58,9.40
2010,02,16,02,59,9.40
2010,02,16,03,00,9.40
2010,02,16,03,01,9.40
2010,02,16,03,02,9.40
2010,02,16,03,03,9.40
2010,02,16,03,04,9.40
2010,02,16,03,05,9.50
2010,02,16,03,06,9.50
2010,02,16,03,07,9.50
2010,02,16,03,08,9.50
2010,02,16,03,09,9.50
2010,02,16,03,10,9.50
2010,02,16,03,11,9.50
2010,02,16,03,12,9.50
2010,02,16,03,13,9.50
2010,02,16,03,14,9.50
2010,02,16,03,15,9.50
2010,02,16,03,16,9.50
2010,02,16,03,17,9.50
2010,02,16,03,18,9.50
2010,02,16,03,19,9.50
2010,02,16,03,20,9.50
2010,02,16,03,21,9.50
2010,02,16,03,22,9.50
2010,02,16,03,23,9.50
2010,02,16,03,24,9.50
2010,02,16,03,25,9.50
2010,02,16,03,26,9.50
2010,02,16,03,27,9.50
2010,02,16,03,28,9.40
2010,02,16,03,29,9.40
2010,02,16,03,30,9.40
2010,02,16,03,31,9.40
2010,02,16,03,32,9.40
2010,02,16,03,33,9.40
2010,02,16,03,34,9.40
2010,02,16,03,35,9.40
2010,02,16,03,36,9.40
2010,02,16,03,37,9.40
2010,02,16,03,38,9.40
2010,02,16,03,39,9.40
2010,02,16,03,40,9.40
2010,02,16,03,41,9.40
2010,02,16,03,42,9.40
2010,02,16,03,43,9.40
2010,02,16,03,44,9.30
2010,02,16,03,45,9.30
2010,02,16,03,46,9.30
2010,02,16,03,47,9.30
2010,02,16,03,48,9.30
2010,02,16,03,49,9.30
2010,02,16,03,50,9.30
2010,02,16,03,51,9.30
2010,02,16,03,52,9.30
2010,02,16,03,53,9.20
2010,02,16,03,54,9.20
2010,02,16,03,55,9.20
2010,02,16,03,56,9.20
2010,02,16,03,57,9.20
2010,02,16,03,58,9.20
2010,02,16,03,59,9.20
2010,02,16,04,00,9.20
2010,02,16,04,01,9.20
2010,02,16,04,02,9.20
2010,02,16,04,03,9.20
2010,02,16,04,04,9.20
2010,02,16,04,05,9.20
2010,02,16,04,06,9.20
2010,02,16,04,07,9.20
2010,02,16,04,08,9.20
2010,02,16,04,09,9.20
2010,02,16,04,10,9.20
2010,02,16,04,11,9.20
2010,02,16,04,12,9.20
2010,02,16,04,13,9.20
2010,02,16,04,14,9.10
2010,02,16,04,15,9.10
2010,02,16,04,16,9.10
2010,02,16,04,17,9.10
2010,02,16,04,18,9.10
2010,02,16,04,19,9.20
2010,02,16,04,20,9.20
2010,02,16,04,21,9.20
2010,02,16,04,22,9.20
2010,02,16,04,23,9.20
2010,02,16,04,24,9.20
2010,02,16,04,25,9.20
2010,02,16,04,26,9.20
2010,02,16,04,27,9.20
2010,02,16,04,28,9.20
2010,02,16,04,29,9.20
2010,02,16,04,30,9.20
2010,02,16,04,31,9.20
2010,02,16,04,32,9.20
2010,02,16,04,33,9.20
2010,02,16,04,34,9.10
2010,02,16,04,35,9.10
2010,02,16,04,36,9.10
2010,02,16,04,37,9.10
2010,02,16,04,38,9.10
2010,02,16,04,39,9.10
2010,02,16,04,40,9.10
2010,02,16,04,41,9.10
2010,02,16,04,42,9.10
2010,02,16,04,43,9.10
2010,02,16,04,44,9.10
2010,02,16,04,45,9.10
2010,02,16,04,46,9.10
2010,02,16,04,47,9.10
2010,02,16,04,48,9.10
2010,02,16,04,49,9.20
2010,02,16,04,50,9.20
2010,02,16,04,51,9.20
2010,02,16,04,52,9.20
2010,02,16,04,53,9.10
2010,02,16,04,54,9.10
2010,02,16,04,55,9.10
2010,02,16,04,56,9.10
2010,02,16,04,57,9.10
2010,02,16,04,58,9.10
2010,02,16,04,59,9.00
2010,02,16,05,00,9.00
2010,02,16,05,01,9.00
2010,02,16,05,02,9.00
2010,02,16,05,03,9.00
2010,02,16,05,04,9.00
2010,02,16,05,05,9.00
2010,02,16,05,06,9.00
2010,02,16,05,07,9.00
2010,02,16,05,08,8.90
2010,02,16,05,09,8.90
2010,02,16,05,10,8.90
2010,02,16,05,11,8.90
2010,02,16,05,12,8.90
2010,02,16,05,13,9.00
2010,02,16,05,14,9.00
2010,02,16,05,15,9.00
2010,02,16,05,16,9.00
2010,02,16,05,17,9.00
2010,02,16,05,18,9.00
2010,02,16,05,19,9.00
2010,02,16,05,20,9.00
2010,02,16,05,21,9.00
2010,02,16,05,22,9.00
2010,02,16,05,23,9.00
2010,02,16,05,24,9.00
2010,02,16,05,25,9.00
2010,02,16,05,26,9.00
2010,02,16,05,27,9.00
2010,02,16,05,28,9.00
2010,02,16,05,29,9.00
2010,02,16,05,30,9.00
2010,02,16,05,31,9.00
2010,02,16,05,32,9.00
2010,02,16,05,33,9.00
2010,02,16,05,34,9.00
2010,02,16,05,35,8.90
2010,02,16,05,36,8.90
2010,02,16,05,37,8.90
2010,02,16,05,38,8.90
2010,02,16,05,39,8.90
2010,02,16,05,40,8.90
2010,02,16,05,41,8.90
2010,02,16,05,42,8.90
2010,02,16,05,43,8.90
2010,02,16,05,44,8.90
2010,02,16,05,45,8.90
2010,02,16,05,46,8.90
2010,02,16,05,47,8.90
2010,02,16,05,48,8.90
2010,02,16,05,49,8.90
2010,02,16,05,50,8.90
2010,02,16,05,51,8.90
2010,02,16,05,52,8.90
2010,02,16,05,53,9.00
2010,02,16,05,54,9.00
2010,02,16,05,55,8.90
2010,02,16,05,56,9.00
2010,02,16,05,57,9.00
2010,02,16,05,58,9.00
2010,02,16,05,59,9.00
2010,02,16,06,00,9.10
2010,02,16,06,01,9.10
2010,02,16,06,02,9.10
2010,02,16,06,03,9.20
2010,02,16,06,04,9.20
2010,02,16,06,05,9.20
2010,02,16,06,06,9.20
2010,02,16,06,07,9.20
2010,02,16,06,08,9.20
2010,02,16,06,09,9.20
2010,02,16,06,10,9.20
2010,02,16,06,11,9.20
2010,02,16,06,12,9.20
2010,02,16,06,13,9.20
2010,02,16,06,14,9.20
2010,02,16,06,15,9.20
2010,02,16,06,16,9.20
2010,02,16,06,17,9.20
2010,02,16,06,18,9.20
2010,02,16,06,19,9.20
2010,02,16,06,20,9.20
2010,02,16,06,21,9.20
2010,02,16,06,22,9.20
2010,02,16,06,23,9.20
2010,02,16,06,24,9.20
2010,02,16,06,25,9.20
2010,02,16,06,26,9.20
2010,02,16,06,27,9.20
2010,02,16,06,28,9.20
2010,02,16,06,29,9.20
2010,02,16,06,30,9.20
2010,02,16,06,31,9.20
2010,02,16,06,32,9.20
2010,02,16,06,33,9.20
2010,02,16,06,34,9.20
2010,02,16,06,35,9.20
2010,02,16,06,36,9.20
2010,02,16,06,37,9.20
2010,02,16,06,38,9.20
2010,02,16,06,39,9.20
2010,02,16,06,40,9.20
2010,02,16,06,41,9.20
2010,02,16,06,42,9.20
2010,02,16,06,43,9.10
2010,02,16,06,44,9.20
2010,02,16,06,45,9.20
2010,02,16,06,46,9.10
2010,02,16,06,47,9.10
2010,02,16,06,48,9.10
2010,02,16,06,49,9.10
2010,02,16,06,50,9.10
2010,02,16,06,51,9.10
2010,02,16,06,52,9.10
2010,02,16,06,53,9.10
2010,02,16,06,54,9.10
2010,02,16,06,55,9.10
2010,02,16,06,56,9.10
2010,02,16,06,57,9.10
2010,02,16,06,58,9.10
2010,02,16,06,59,9.10
2010,02,16,07,00,9.10
2010,02,16,07,01,9.10
2010,02,16,07,02,9.10
2010,02,16,07,03,9.10
2010,02,16,07,04,9.10
2010,02,16,07,05,9.10
2010,02,16,07,06,9.10
2010,02,16,07,07,9.10
2010,02,16,07,08,9.10
2010,02,16,07,09,9.10
2010,02,16,07,10,9.10
2010,02,16,07,11,9.10
2010,02,16,07,12,9.10
2010,02,16,07,13,9.00
2010,02,16,07,14,9.00
2010,02,16,07,15,9.00
2010,02,16,07,16,9.00
2010,02,16,07,17,9.00
2010,02,16,07,18,9.00
2010,02,16,07,19,9.00
2010,02,16,07,20,9.00
2010,02,16,07,21,9.00
2010,02,16,07,22,9.00
2010,02,16,07,23,9.10
2010,02,16,07,24,9.10
2010,02,16,07,25,9.00
2010,02,16,07,26,9.00
2010,02,16,07,27,9.00
2010,02,16,07,28,9.00
2010,02,16,07,29,9.10
2010,02,16,07,30,9.00
2010,02,16,07,31,9.00
2010,02,16,07,32,9.00
2010,02,16,07,33,9.00
2010,02,16,07,34,9.00
2010,02,16,07,35,9.00
2010,02,16,07,36,9.00
2010,02,16,07,37,9.00
2010,02,16,07,38,8.90
2010,02,16,07,39,8.90
2010,02,16,07,40,8.90
2010,02,16,07,41,8.90
2010,02,16,07,42,8.90
2010,02,16,07,43,8.90
2010,02,16,07,44,9.00
2010,02,16,07,45,9.00
2010,02,16,07,46,9.00
2010,02,16,07,47,9.00
2010,02,16,07,48,9.00
2010,02,16,07,49,9.00
2010,02,16,07,50,9.00
2010,02,16,07,51,9.00
2010,02,16,07,52,9.00
2010,02,16,07,53,9.00
2010,02,16,07,54,9.00
2010,02,16,07,55,9.00
2010,02,16,07,56,9.10
2010,02,16,07,57,9.10
2010,02,16,07,58,9.10
2010,02,16,07,59,9.10
2010,02,16,08,00,9.10
2010,02,16,08,01,9.10
2010,02,16,08,02,9.10
2010,02,16,08,03,9.10
2010,02,16,08,04,9.10
2010,02,16,08,05,9.10
2010,02,16,08,06,9.10
2010,02,16,08,07,9.20
2010,02,16,08,08,9.20
2010,02,16,08,09,9.20
2010,02,16,08,10,9.20
2010,02,16,08,11,9.20
2010,02,16,08,12,9.20
2010,02,16,08,13,9.20
2010,02,16,08,14,9.20
2010,02,16,08,15,9.20
2010,02,16,08,16,9.20
2010,02,16,08,17,9.20
2010,02,16,08,18,9.20
2010,02,16,08,19,9.20
2010,02,16,08,20,9.20
2010,02,16,08,21,9.20
2010,02,16,08,22,9.20
2010,02,16,08,23,9.20
2010,02,16,08,24,9.20
2010,02,16,08,25,9.30
2010,02,16,08,26,9.30
2010,02,16,08,27,9.30
2010,02,16,08,28,9.30
2010,02,16,08,29,9.30
2010,02,16,08,30,9.30
2010,02,16,08,31,9.30
2010,02,16,08,32,9.30
2010,02,16,08,33,9.40
2010,02,16,08,34,9.40
2010,02,16,08,35,9.40
2010,02,16,08,36,9.40
2010,02,16,08,37,9.50
2010,02,16,08,38,9.60
2010,02,16,08,39,9.60
2010,02,16,08,40,9.60
2010,02,16,08,41,9.60
2010,02,16,08,42,9.70
2010,02,16,08,43,9.70
2010,02,16,08,44,9.70
2010,02,16,08,45,9.70
2010,02,16,08,46,9.70
2010,02,16,08,47,9.70
2010,02,16,08,48,9.80
2010,02,16,08,49,9.80
2010,02,16,08,50,9.90
2010,02,16,08,51,9.90
2010,02,16,08,52,9.90
2010,02,16,08,53,9.90
2010,02,16,08,54,10.10
2010,02,16,08,55,10.10
2010,02,16,08,56,10.20
2010,02,16,08,57,10.20
2010,02,16,08,58,10.30
2010,02,16,08,59,10.30
2010,02,16,09,00,10.20
2010,02,16,09,01,10.20
2010,02,16,09,02,10.30
2010,02,16,09,03,10.30
2010,02,16,09,04,10.30
2010,02,16,09,05,10.30
2010,02,16,09,06,10.20
2010,02,16,09,07,10.20
2010,02,16,09,08,10.30
2010,02,16,09,09,10.30
2010,02,16,09,10,10.20
2010,02,16,09,11,10.30
2010,02,16,09,12,10.30
2010,02,16,09,13,10.40
2010,02,16,09,14,10.40
2010,02,16,09,15,10.40
2010,02,16,09,16,10.40
2010,02,16,09,17,10.40
2010,02,16,09,18,10.40
2010,02,16,09,19,10.40
2010,02,16,09,20,10.40
2010,02,16,09,21,10.50
2010,02,16,09,22,10.60
2010,02,16,09,23,10.60
2010,02,16,09,24,10.60
2010,02,16,09,25,10.60
2010,02,16,09,26,10.60
2010,02,16,09,27,10.60
2010,02,16,09,28,10.60
2010,02,16,09,29,10.60
2010,02,16,09,30,10.60
2010,02,16,09,31,10.60
2010,02,16,09,32,10.70
2010,02,16,09,33,10.70
2010,02,16,09,34,10.80
2010,02,16,09,35,10.80
2010,02,16,09,36,10.80
2010,02,16,09,37,10.90
2010,02,16,09,38,10.90
2010,02,16,09,39,10.80
2010,02,16,09,40,10.80
2010,02,16,09,41,10.80
2010,02,16,09,42,10.80
2010,02,16,09,43,10.80
2010,02,16,09,44,10.70
2010,02,16,09,45,10.70
2010,02,16,09,46,10.70
2010,02,16,09,47,10.60
2010,02,16,09,48,10.60
2010,02,16,09,49,10.60
2010,02,16,09,50,10.60
2010,02,16,09,51,10.60
2010,02,16,09,52,10.70
2010,02,16,09,53,10.70
2010,02,16,09,54,10.70
2010,02,16,09,55,10.70
2010,02,16,09,56,10.70
2010,02,16,09,57,10.80
2010,02,16,09,58,10.80
2010,02,16,09,59,10.90
2010,02,16,10,00,10.90
2010,02,16,10,01,10.90
2010,02,16,10,02,10.90
2010,02,16,10,03,10.90
2010,02,16,10,04,11.00
2010,02,16,10,05,11.10
2010,02,16,10,06,11.10
2010,02,16,10,07,11.10
2010,02,16,10,08,11.10
2010,02,16,10,09,11.20
2010,02,16,10,10,11.20
2010,02,16,10,11,11.20
2010,02,16,10,12,11.20
2010,02,16,10,13,11.20
2010,02,16,10,14,11.20
2010,02,16,10,15,11.20
2010,02,16,10,16,11.20
2010,02,16,10,17,11.20
2010,02,16,10,18,11.10
2010,02,16,10,19,11.20
2010,02,16,10,20,11.10
2010,02,16,10,21,11.10
2010,02,16,10,22,11.10
2010,02,16,10,23,11.00
2010,02,16,10,24,10.90
2010,02,16,10,25,10.90
2010,02,16,10,26,10.90
2010,02,16,10,27,10.90
2010,02,16,10,28,11.10
2010,02,16,10,29,11.10
2010,02,16,10,30,11.10
2010,02,16,10,31,11.10
2010,02,16,10,32,11.10
2010,02,16,10,33,11.10
2010,02,16,10,34,11.10
2010,02,16,10,35,11.20
2010,02,16,10,36,11.20
2010,02,16,10,37,11.20
2010,02,16,10,38,11.20
2010,02,16,10,39,11.20
2010,02,16,10,40,11.30
2010,02,16,10,41,11.30
2010,02,16,10,42,11.40
2010,02,16,10,43,11.40
2010,02,16,10,44,11.40
2010,02,16,10,45,11.40
2010,02,16,10,46,11.40
2010,02,16,10,47,11.40
2010,02,16,10,48,11.40
2010,02,16,10,49,11.40
2010,02,16,10,50,11.50
2010,02,16,10,51,11.60
2010,02,16,10,52,11.60
2010,02,16,10,53,11.60
2010,02,16,10,54,11.70
2010,02,16,10,55,11.70
2010,02,16,10,56,11.80
2010,02,16,10,57,11.90
2010,02,16,10,58,12.00
2010,02,16,10,59,12.10
2010,02,16,11,00,12.20
2010,02,16,11,01,12.30
2010,02,16,11,02,12.30
2010,02,16,11,03,12.30
2010,02,16,11,04,12.30
2010,02,16,11,05,12.20
2010,02,16,11,06,12.20
2010,02,16,11,07,12.10
2010,02,16,11,08,12.10
2010,02,16,11,09,12.00
2010,02,16,11,10,12.00
2010,02,16,11,11,11.90
2010,02,16,11,12,12.00
2010,02,16,11,13,12.00
2010,02,16,11,14,12.10
2010,02,16,11,15,12.10
2010,02,16,11,16,12.10
2010,02,16,11,17,12.20
2010,02,16,11,18,12.20
2010,02,16,11,19,12.20
2010,02,16,11,20,12.10
2010,02,16,11,21,12.10
2010,02,16,11,22,12.10
2010,02,16,11,23,12.10
2010,02,16,11,24,12.10
2010,02,16,11,25,12.10
2010,02,16,11,26,12.10
2010,02,16,11,27,12.10
2010,02,16,11,28,12.10
2010,02,16,11,29,12.10
2010,02,16,11,30,12.20
2010,02,16,11,31,12.30
2010,02,16,11,32,12.30
2010,02,16,11,33,12.30
2010,02,16,11,34,12.40
2010,02,16,11,35,12.40
2010,02,16,11,36,12.40
2010,02,16,11,37,12.50
2010,02,16,11,38,12.50
2010,02,16,11,39,12.50
2010,02,16,11,40,12.50
2010,02,16,11,41,12.50
2010,02,16,11,42,12.50
2010,02,16,11,43,12.40
2010,02,16,11,44,12.40
2010,02,16,11,45,12.40
2010,02,16,11,46,12.40
2010,02,16,11,47,12.40
2010,02,16,11,48,12.40
2010,02,16,11,49,12.40
2010,02,16,11,50,12.40
2010,02,16,11,51,12.40
2010,02,16,11,52,12.40
2010,02,16,11,53,12.40
2010,02,16,11,54,12.30
2010,02,16,11,55,12.30
2010,02,16,11,56,12.30
2010,02,16,11,57,12.40
2010,02,16,11,58,12.30
2010,02,16,11,59,12.30
2010,02,16,12,00,12.30
2010,02,16,12,01,12.30
2010,02,16,12,02,12.30
2010,02,16,12,03,12.30
2010,02,16,12,04,12.30
2010,02,16,12,05,12.30
2010,02,16,12,06,12.40
2010,02,16,12,07,12.50
2010,02,16,12,08,12.60
2010,02,16,12,09,12.60
2010,02,16,12,10,12.60
2010,02,16,12,11,12.50
2010,02,16,12,12,12.50
2010,02,16,12,13,12.40
2010,02,16,12,14,12.30
2010,02,16,12,15,12.30
2010,02,16,12,16,12.40
2010,02,16,12,17,12.50
2010,02,16,12,18,12.50
2010,02,16,12,19,12.40
2010,02,16,12,20,12.40
2010,02,16,12,21,12.40
2010,02,16,12,22,12.40
2010,02,16,12,23,12.40
2010,02,16,12,24,12.40
2010,02,16,12,25,12.40
2010,02,16,12,26,12.40
2010,02,16,12,27,12.30
2010,02,16,12,28,12.30
2010,02,16,12,29,12.30
2010,02,16,12,30,12.30
2010,02,16,12,31,12.30
2010,02,16,12,32,12.20
2010,02,16,12,33,12.20
2010,02,16,12,34,12.20
2010,02,16,12,35,12.10
2010,02,16,12,36,12.00
2010,02,16,12,37,12.00
2010,02,16,12,38,11.90
2010,02,16,12,39,11.90
2010,02,16,12,40,11.90
2010,02,16,12,41,12.00
2010,02,16,12,42,12.00
2010,02,16,12,43,11.90
2010,02,16,12,44,11.90
2010,02,16,12,45,11.80
2010,02,16,12,46,11.80
2010,02,16,12,47,11.60
2010,02,16,12,48,11.60
2010,02,16,12,49,11.60
2010,02,16,12,50,11.60
2010,02,16,12,51,11.50
2010,02,16,12,52,11.40
2010,02,16,12,53,11.40
2010,02,16,12,54,11.40
2010,02,16,12,55,11.40
2010,02,16,12,56,11.30
2010,02,16,12,57,11.20
2010,02,16,12,58,11.20
2010,02,16,12,59,11.10
2010,02,16,13,00,11.10
2010,02,16,13,01,11.10
2010,02,16,13,02,11.10
2010,02,16,13,03,11.10
2010,02,16,13,04,11.10
2010,02,16,13,05,11.20
2010,02,16,13,06,11.20
2010,02,16,13,07,11.20
2010,02,16,13,08,11.20
2010,02,16,13,09,11.20
2010,02,16,13,10,11.20
2010,02,16,13,11,11.20
2010,02,16,13,12,11.30
2010,02,16,13,13,11.30
2010,02,16,13,14,11.40
2010,02,16,13,15,11.50
2010,02,16,13,16,11.60
2010,02,16,13,17,11.60
2010,02,16,13,18,11.60
2010,02,16,13,19,11.70
2010,02,16,13,20,11.80
2010,02,16,13,21,11.80
2010,02,16,13,22,11.80
2010,02,16,13,23,11.90
2010,02,16,13,24,11.90
2010,02,16,13,25,11.90
2010,02,16,13,26,11.90
2010,02,16,13,27,12.00
2010,02,16,13,28,12.00
2010,02,16,13,29,12.00
2010,02,16,13,30,12.00
2010,02,16,13,31,12.00
2010,02,16,13,32,12.00
2010,02,16,13,33,12.00
2010,02,16,13,34,11.90
2010,02,16,13,35,11.90
2010,02,16,13,36,11.90
2010,02,16,13,37,11.90
2010,02,16,13,38,11.90
2010,02,16,13,39,11.90
2010,02,16,13,40,11.90
2010,02,16,13,41,11.90
2010,02,16,13,42,11.90
2010,02,16,13,43,12.20
2010,02,16,13,44,12.30
2010,02,16,13,45,12.30
2010,02,16,13,46,12.30
2010,02,16,13,47,12.30
2010,02,16,13,48,12.40
2010,02,16,13,49,12.40
2010,02,16,13,50,12.40
2010,02,16,13,51,12.50
2010,02,16,13,52,12.50
2010,02,16,13,53,12.60
2010,02,16,13,54,12.70
2010,02,16,13,55,12.70
2010,02,16,13,56,12.70
2010,02,16,13,57,12.60
2010,02,16,13,58,12.50
2010,02,16,13,59,12.50
2010,02,16,14,00,12.50
2010,02,16,14,01,12.50
2010,02,16,14,02,12.40
2010,02,16,14,03,12.40
2010,02,16,14,04,12.40
2010,02,16,14,05,12.40
2010,02,16,14,06,12.40
2010,02,16,14,07,12.40
2010,02,16,14,08,12.40
2010,02,16,14,09,12.50
2010,02,16,14,10,12.50
2010,02,16,14,11,12.60
2010,02,16,14,12,12.60
2010,02,16,14,13,12.70
2010,02,16,14,14,12.80
2010,02,16,14,15,12.80
2010,02,16,14,16,12.80
2010,02,16,14,17,12.80
2010,02,16,14,18,12.90
2010,02,16,14,19,12.90
2010,02,16,14,20,12.90
2010,02,16,14,21,13.00
2010,02,16,14,22,13.00
2010,02,16,14,23,13.00
2010,02,16,14,24,12.90
2010,02,16,14,25,12.90
2010,02,16,14,26,12.90
2010,02,16,14,27,12.80
2010,02,16,14,28,12.80
2010,02,16,14,29,12.80
2010,02,16,14,30,12.80
2010,02,16,14,31,12.80
2010,02,16,14,32,12.80
2010,02,16,14,33,12.90
2010,02,16,14,34,12.90
2010,02,16,14,35,13.00
2010,02,16,14,36,13.00
2010,02,16,14,37,13.00
2010,02,16,14,38,13.00
2010,02,16,14,39,13.00
2010,02,16,14,40,13.00
2010,02,16,14,41,13.10
2010,02,16,14,42,13.10
2010,02,16,14,43,13.10
2010,02,16,14,44,13.00
2010,02,16,14,45,13.00
2010,02,16,14,46,13.00
2010,02,16,14,47,12.90
2010,02,16,14,48,12.80
2010,02,16,14,49,12.80
2010,02,16,14,50,12.80
2010,02,16,14,51,12.80
2010,02,16,14,52,12.80
2010,02,16,14,53,12.80
2010,02,16,14,54,12.80
2010,02,16,14,55,12.90
2010,02,16,14,56,12.90
2010,02,16,14,57,12.90
2010,02,16,14,58,13.00
2010,02,16,14,59,13.00
2010,02,16,15,00,13.00
2010,02,16,15,01,13.10
2010,02,16,15,02,13.10
2010,02,16,15,03,13.10
2010,02,16,15,04,13.10
2010,02,16,15,05,13.10
2010,02,16,15,06,13.00
2010,02,16,15,07,13.00
2010,02,16,15,08,12.90
2010,02,16,15,09,12.90
2010,02,16,15,10,13.00
2010,02,16,15,11,13.00
2010,02,16,15,12,13.00
2010,02,16,15,13,13.00
2010,02,16,15,14,13.00
2010,02,16,15,15,13.10
2010,02,16,15,16,13.10
2010,02,16,15,17,13.10
2010,02,16,15,18,13.10
2010,02,16,15,19,13.10
2010,02,16,15,20,13.10
2010,02,16,15,21,13.00
2010,02,16,15,22,13.00
2010,02,16,15,23,12.80
2010,02,16,15,24,12.80
2010,02,16,15,25,12.80
2010,02,16,15,26,12.80
2010,02,16,15,27,12.80
2010,02,16,15,28,12.80
2010,02,16,15,29,12.80
2010,02,16,15,30,12.80
2010,02,16,15,31,12.80
2010,02,16,15,32,12.80
2010,02,16,15,33,12.80
2010,02,16,15,34,12.70
2010,02,16,15,35,12.70
2010,02,16,15,36,12.70
2010,02,16,15,37,12.70
2010,02,16,15,38,12.70
2010,02,16,15,39,12.70
2010,02,16,15,40,12.70
2010,02,16,15,41,12.80
2010,02,16,15,42,12.80
2010,02,16,15,43,12.80
2010,02,16,15,44,12.80
2010,02,16,15,45,12.80
2010,02,16,15,46,12.80
2010,02,16,15,47,12.80
2010,02,16,15,48,12.70
2010,02,16,15,49,12.70
2010,02,16,15,50,12.70
2010,02,16,15,51,12.70
2010,02,16,15,52,12.60
2010,02,16,15,53,12.60
2010,02,16,15,54,12.60
2010,02,16,15,55,12.60
2010,02,16,15,56,12.60
2010,02,16,15,57,12.50
2010,02,16,15,58,12.50
2010,02,16,15,59,12.50
2010,02,16,16,00,12.50
2010,02,16,16,01,12.50
2010,02,16,16,02,12.50
2010,02,16,16,03,12.50
2010,02,16,16,04,12.50
2010,02,16,16,05,12.50
2010,02,16,16,06,12.50
2010,02,16,16,07,12.50
2010,02,16,16,08,12.50
2010,02,16,16,09,12.50
2010,02,16,16,10,12.50
2010,02,16,16,11,12.50
2010,02,16,16,12,12.50
2010,02,16,16,13,12.50
2010,02,16,16,14,12.40
2010,02,16,16,15,12.40
2010,02,16,16,16,12.40
2010,02,16,16,17,12.30
2010,02,16,16,18,12.30
2010,02,16,16,19,12.30
2010,02,16,16,20,12.30
2010,02,16,16,21,12.30
2010,02,16,16,22,12.30
2010,02,16,16,23,12.30
2010,02,16,16,24,12.20
2010,02,16,16,25,12.20
2010,02,16,16,26,12.20
2010,02,16,16,27,12.10
2010,02,16,16,28,12.10
2010,02,16,16,29,12.10
2010,02,16,16,30,12.10
2010,02,16,16,31,12.00
2010,02,16,16,32,12.00
2010,02,16,16,33,12.00
2010,02,16,16,34,12.00
2010,02,16,16,35,11.90
2010,02,16,16,36,11.90
2010,02,16,16,37,11.80
2010,02,16,16,38,11.80
2010,02,16,16,39,11.80
2010,02,16,16,40,11.80
2010,02,16,16,41,11.80
2010,02,16,16,42,11.80
2010,02,16,16,43,11.80
2010,02,16,16,44,11.80
2010,02,16,16,45,11.80
2010,02,16,16,46,11.80
2010,02,16,16,47,11.80
2010,02,16,16,48,11.80
2010,02,16,16,49,11.70
2010,02,16,16,50,11.70
2010,02,16,16,51,11.60
2010,02,16,16,52,11.60
2010,02,16,16,53,11.60
2010,02,16,16,54,11.60
2010,02,16,16,55,11.60
2010,02,16,16,56,11.60
2010,02,16,16,57,11.60
2010,02,16,16,58,11.60
2010,02,16,16,59,11.60
2010,02,16,17,00,11.60
2010,02,16,17,01,11.60
2010,02,16,17,02,11.60
2010,02,16,17,03,11.40
2010,02,16,17,04,11.40
2010,02,16,17,05,11.40
2010,02,16,17,06,11.40
2010,02,16,17,07,11.40
2010,02,16,17,08,11.40
2010,02,16,17,09,11.40
2010,02,16,17,10,11.40
2010,02,16,17,11,11.40
2010,02,16,17,12,11.40
2010,02,16,17,13,11.40
2010,02,16,17,14,11.40
2010,02,16,17,15,11.40
2010,02,16,17,16,11.40
2010,02,16,17,17,11.30
2010,02,16,17,18,11.30
2010,02,16,17,19,11.30
2010,02,16,17,20,11.20
2010,02,16,17,21,11.20
2010,02,16,17,22,11.20
2010,02,16,17,23,11.10
2010,02,16,17,24,11.10
2010,02,16,17,25,11.10
2010,02,16,17,26,11.10
2010,02,16,17,27,10.90
2010,02,16,17,28,10.90
2010,02,16,17,29,10.90
2010,02,16,17,30,10.80
2010,02,16,17,31,10.70
2010,02,16,17,32,10.70
2010,02,16,17,33,10.60
2010,02,16,17,34,10.60
2010,02,16,17,35,10.50
2010,02,16,17,36,10.40
2010,02,16,17,37,10.40
2010,02,16,17,38,10.30
2010,02,16,17,39,10.30
2010,02,16,17,40,10.20
2010,02,16,17,41,10.20